Time,TemperatureF,DewpointF,PressureIn,WindDirection,WindDirectionDegrees,WindSpeedMPH,WindSpeedGustMPH,Humidity,HourlyPrecipIn,Conditions,Clouds,dailyrainin,SoftwareType,DateUTC
2013-04-07 00:00:00,51.8,32.1,29.89,South,191,0.0,0.0,47,0.00,,---,0.00,VWS V14.01,2013-04-07 06:00:00,
2013-04-07 00:01:00,51.8,30.8,29.87,WSW,253,3.4,7.5,44,0.00,,---,0.00,VWS V14.01,2013-04-07 06:01:00,
2013-04-07 00:02:00,51.7,30.7,29.87,SSW,201,5.1,5.7,44,0.00,,---,0.00,VWS V14.01,2013-04-07 06:02:00,
2013-04-07 00:03:00,51.7,30.7,29.87,SSW,198,5.1,6.6,44,0.00,,---,0.00,VWS V14.01,2013-04-07 06:03:00,
2013-04-07 00:04:00,51.7,30.8,29.87,WSW,238,7.7,10.0,44,0.00,,---,0.00,VWS V14.01,2013-04-07 06:04:00,
2013-04-07 00:05:00,51.8,31.9,29.89,SW,224,5.2,6.6,46,0.00,,---,0.00,VWS V14.01,2013-04-07 06:05:00,
2013-04-07 00:06:00,51.6,30.8,29.87,SW,233,9.5,9.5,45,0.00,,---,0.00,VWS V14.01,2013-04-07 06:06:00,
2013-04-07 00:07:00,51.6,30.8,29.86,SW,222,8.1,17.1,45,0.00,,---,0.00,VWS V14.01,2013-04-07 06:07:00,
2013-04-07 00:08:00,51.6,30.8,29.87,WSW,240,7.0,8.3,45,0.00,,---,0.00,VWS V14.01,2013-04-07 06:08:00,
2013-04-07 00:09:00,51.7,30.8,29.86,WSW,248,6.6,11.9,44,0.00,,---,0.00,VWS V14.01,2013-04-07 06:09:00,
2013-04-07 00:10:00,52.0,31.8,29.89,SSW,204,0.0,0.0,46,0.00,,---,0.00,VWS V14.01,2013-04-07 06:10:00,
2013-04-07 00:11:00,51.6,30.7,29.86,SSW,205,8.8,14.2,44,0.00,,---,0.00,VWS V14.01,2013-04-07 06:11:00,
2013-04-07 00:12:00,54.3,23.3,29.88,North,359,0.0,0.0,30,0.00,,---,0.00,VWS V14.01,2013-04-07 06:12:00,
2013-04-07 00:13:00,54.2,23.2,29.88,North,359,0.0,0.0,30,0.00,,---,0.00,VWS V14.01,2013-04-07 06:13:00,
2013-04-07 00:14:00,54.2,23.4,29.88,North,359,0.0,0.0,30,0.00,,---,0.00,VWS V14.01,2013-04-07 06:14:00,
2013-04-07 00:15:00,52.0,31.7,29.89,WSW,243,0.0,0.0,46,0.00,,---,0.00,VWS V14.01,2013-04-07 06:15:00,
2013-04-07 00:16:00,54.1,23.3,29.88,North,359,0.0,0.0,30,0.00,,---,0.00,VWS V14.01,2013-04-07 06:16:00,
2013-04-07 00:17:00,54.2,23.5,29.88,North,359,0.0,0.0,30,0.00,,---,0.00,VWS V14.01,2013-04-07 06:17:00,
2013-04-07 00:18:00,54.0,23.3,29.88,North,359,0.0,0.0,30,0.00,,---,0.00,VWS V14.01,2013-04-07 06:18:00,
2013-04-07 00:19:00,54.1,23.5,29.89,North,359,0.0,0.0,30,0.00,,---,0.00,VWS V14.01,2013-04-07 06:19:00,
2013-04-07 00:20:00,52.0,31.5,29.89,WSW,243,0.0,0.0,45,0.00,,---,0.00,VWS V14.01,2013-04-07 06:20:00,
2013-04-07 00:21:00,54.0,23.4,29.89,North,359,0.0,0.0,30,0.00,,---,0.00,VWS V14.01,2013-04-07 06:21:00,
2013-04-07 00:22:00,53.9,23.4,29.89,North,359,0.0,0.0,30,0.00,,---,0.00,VWS V14.01,2013-04-07 06:22:00,
2013-04-07 00:23:00,53.9,23.4,29.89,North,359,0.0,0.0,30,0.00,,---,0.00,VWS V14.01,2013-04-07 06:23:00,
2013-04-07 00:24:00,53.9,23.5,29.89,North,359,0.0,0.0,30,0.00,,---,0.00,VWS V14.01,2013-04-07 06:24:00,
2013-04-07 00:25:00,52.0,31.2,29.89,West,259,4.3,5.0,45,0.00,,---,0.00,VWS V14.01,2013-04-07 06:25:00,
2013-04-07 00:26:00,53.8,23.7,29.88,North,359,0.0,0.0,31,0.00,,---,0.00,VWS V14.01,2013-04-07 06:26:00,
2013-04-07 00:27:00,53.9,23.8,29.89,North,359,0.0,0.0,31,0.00,,---,0.00,VWS V14.01,2013-04-07 06:27:00,
2013-04-07 00:28:00,53.8,23.7,29.89,North,359,0.0,0.0,31,0.00,,---,0.00,VWS V14.01,2013-04-07 06:28:00,
2013-04-07 00:29:00,53.8,23.7,29.89,North,359,0.0,0.0,31,0.00,,---,0.00,VWS V14.01,2013-04-07 06:29:00,
2013-04-07 00:30:00,52.0,31.0,29.88,WSW,253,7.2,10.2,44,0.00,,---,0.00,VWS V14.01,2013-04-07 06:30:00,
2013-04-07 00:31:00,53.8,23.7,29.89,North,359,0.0,0.0,31,0.00,,---,0.00,VWS V14.01,2013-04-07 06:31:00,
2013-04-07 00:32:00,53.6,23.5,29.89,North,359,0.0,0.0,31,0.00,,---,0.00,VWS V14.01,2013-04-07 06:32:00,
2013-04-07 00:33:00,53.5,23.4,29.89,North,359,0.0,0.0,31,0.00,,---,0.00,VWS V14.01,2013-04-07 06:33:00,
2013-04-07 00:34:00,53.6,23.6,29.89,North,359,0.0,0.0,31,0.00,,---,0.00,VWS V14.01,2013-04-07 06:34:00,
2013-04-07 00:35:00,51.9,30.9,29.88,SW,219,6.5,10.4,44,0.00,,---,0.00,VWS V14.01,2013-04-07 06:35:00,
2013-04-07 00:36:00,53.5,23.5,29.89,North,359,0.0,0.0,31,0.00,,---,0.00,VWS V14.01,2013-04-07 06:36:00,
2013-04-07 00:37:00,53.4,23.4,29.89,North,359,0.0,0.0,31,0.00,,---,0.00,VWS V14.01,2013-04-07 06:37:00,
2013-04-07 00:38:00,53.4,23.4,29.89,North,359,0.0,0.0,31,0.00,,---,0.00,VWS V14.01,2013-04-07 06:38:00,
2013-04-07 00:39:00,53.3,23.2,29.89,North,359,0.0,0.0,31,0.00,,---,0.00,VWS V14.01,2013-04-07 06:39:00,
2013-04-07 00:40:00,51.8,30.8,29.88,SSW,211,8.6,10.5,44,0.00,,---,0.00,VWS V14.01,2013-04-07 06:40:00,
2013-04-07 00:41:00,53.3,23.2,29.89,North,359,0.0,0.0,31,0.00,,---,0.00,VWS V14.01,2013-04-07 06:41:00,
2013-04-07 00:42:00,53.2,23.1,29.89,North,359,0.0,0.0,31,0.00,,---,0.00,VWS V14.01,2013-04-07 06:42:00,
2013-04-07 00:43:00,53.3,23.3,29.89,North,359,0.0,0.0,31,0.00,,---,0.00,VWS V14.01,2013-04-07 06:43:00,
2013-04-07 00:44:00,53.3,23.2,29.89,North,359,0.0,0.0,31,0.00,,---,0.00,VWS V14.01,2013-04-07 06:44:00,
2013-04-07 00:45:00,51.7,30.7,29.87,WSW,238,6.2,8.8,44,0.00,,---,0.00,VWS V14.01,2013-04-07 06:45:00,
2013-04-07 00:46:00,53.2,23.1,29.89,North,359,0.0,0.0,31,0.00,,---,0.00,VWS V14.01,2013-04-07 06:46:00,
2013-04-07 00:47:00,53.2,23.1,29.89,North,359,0.0,0.0,31,0.00,,---,0.00,VWS V14.01,2013-04-07 06:47:00,
2013-04-07 00:48:00,53.2,23.2,29.89,North,359,0.0,0.0,31,0.00,,---,0.00,VWS V14.01,2013-04-07 06:48:00,
2013-04-07 00:49:00,53.1,22.9,29.89,North,359,0.0,0.0,30,0.00,,---,0.00,VWS V14.01,2013-04-07 06:49:00,
2013-04-07 00:50:00,51.7,30.7,29.87,SW,224,5.3,7.5,44,0.00,,---,0.00,VWS V14.01,2013-04-07 06:50:00,
2013-04-07 00:51:00,53.1,23.1,29.89,North,359,0.0,0.0,31,0.00,,---,0.00,VWS V14.01,2013-04-07 06:51:00,
2013-04-07 00:52:00,53.1,23.2,29.89,North,359,0.0,0.0,31,0.00,,---,0.00,VWS V14.01,2013-04-07 06:52:00,
2013-04-07 00:53:00,53.0,23.0,29.90,North,359,0.0,0.0,31,0.00,,---,0.00,VWS V14.01,2013-04-07 06:53:00,
2013-04-07 00:54:00,53.0,23.2,29.90,North,359,0.0,0.0,31,0.00,,---,0.00,VWS V14.01,2013-04-07 06:54:00,
2013-04-07 00:55:00,51.7,30.7,29.87,SW,229,3.0,4.6,44,0.00,,---,0.00,VWS V14.01,2013-04-07 06:55:00,
2013-04-07 00:56:00,53.0,23.3,29.90,North,359,0.0,0.0,31,0.00,,---,0.00,VWS V14.01,2013-04-07 06:56:00,
2013-04-07 00:57:00,53.0,23.4,29.90,North,359,0.0,0.0,31,0.00,,---,0.00,VWS V14.01,2013-04-07 06:57:00,
2013-04-07 00:58:00,53.0,23.4,29.90,North,359,0.0,0.0,31,0.00,,---,0.00,VWS V14.01,2013-04-07 06:58:00,
2013-04-07 00:59:00,52.9,23.3,29.90,North,359,0.0,0.0,31,0.00,,---,0.00,VWS V14.01,2013-04-07 06:59:00,
2013-04-07 01:00:00,51.7,30.6,29.87,SW,228,7.6,10.1,44,0.00,,---,0.00,VWS V14.01,2013-04-07 07:00:00,
2013-04-07 01:09:00,51.7,30.8,29.87,WSW,239,7.9,8.1,45,0.00,,---,0.00,VWS V14.01,2013-04-07 07:09:00,
2013-04-07 01:14:00,51.5,30.7,29.86,SW,214,9.7,10.7,45,0.00,,---,0.00,VWS V14.01,2013-04-07 07:14:00,
2013-04-07 01:19:00,51.5,30.8,29.86,SSW,202,6.0,8.5,45,0.00,,---,0.00,VWS V14.01,2013-04-07 07:19:00,
2013-04-07 01:24:00,51.3,30.9,29.85,SW,221,15.4,16.7,45,0.00,,---,0.00,VWS V14.01,2013-04-07 07:24:00,
2013-04-07 01:29:00,51.2,31.1,29.86,WSW,245,7.2,10.4,46,0.00,,---,0.00,VWS V14.01,2013-04-07 07:29:00,
2013-04-07 01:34:00,50.9,31.1,29.86,SW,224,9.8,10.4,46,0.00,,---,0.00,VWS V14.01,2013-04-07 07:34:00,
2013-04-07 01:39:00,50.9,31.2,29.86,WNW,290,0.0,0.0,47,0.00,,---,0.00,VWS V14.01,2013-04-07 07:39:00,
2013-04-07 01:44:00,50.8,31.3,29.86,West,262,4.5,5.3,47,0.00,,---,0.00,VWS V14.01,2013-04-07 07:44:00,
2013-04-07 01:50:00,50.8,31.5,29.86,WSW,238,0.0,0.0,47,0.00,,---,0.00,VWS V14.01,2013-04-07 07:50:00,
2013-04-07 01:55:00,50.7,31.6,29.86,WSW,238,0.0,0.0,48,0.00,,---,0.00,VWS V14.01,2013-04-07 07:55:00,
2013-04-07 02:00:00,50.5,31.7,29.85,WSW,238,0.0,0.0,48,0.00,,---,0.00,VWS V14.01,2013-04-07 08:00:00,
2013-04-07 02:05:00,50.4,31.7,29.85,WSW,238,0.0,0.0,48,0.00,,---,0.00,VWS V14.01,2013-04-07 08:05:00,
2013-04-07 02:10:00,50.3,31.8,29.85,WSW,238,0.0,0.0,49,0.00,,---,0.00,VWS V14.01,2013-04-07 08:10:00,
2013-04-07 02:15:00,50.3,32.0,29.85,WSW,238,0.0,0.0,49,0.00,,---,0.00,VWS V14.01,2013-04-07 08:15:00,
2013-04-07 02:20:00,50.3,32.1,29.85,WSW,238,0.0,0.0,49,0.00,,---,0.00,VWS V14.01,2013-04-07 08:20:00,
2013-04-07 02:25:00,50.1,32.2,29.84,WSW,238,0.0,0.0,50,0.00,,---,0.00,VWS V14.01,2013-04-07 08:25:00,
2013-04-07 02:30:00,49.9,32.3,29.84,WSW,238,0.0,0.0,50,0.00,,---,0.00,VWS V14.01,2013-04-07 08:30:00,
2013-04-07 02:35:00,49.7,32.3,29.84,WSW,238,0.0,0.0,51,0.00,,---,0.00,VWS V14.01,2013-04-07 08:35:00,
2013-04-07 02:40:00,49.5,32.4,29.84,WSW,238,0.0,0.0,52,0.00,,---,0.00,VWS V14.01,2013-04-07 08:40:00,
2013-04-07 02:45:00,49.2,32.3,29.84,WSW,238,0.0,0.0,52,0.00,,---,0.00,VWS V14.01,2013-04-07 08:45:00,
2013-04-07 02:50:00,48.8,32.3,29.84,WSW,238,0.0,0.0,53,0.00,,---,0.00,VWS V14.01,2013-04-07 08:50:00,
2013-04-07 02:55:00,48.6,32.5,29.84,WSW,238,0.0,0.0,54,0.00,,---,0.00,VWS V14.01,2013-04-07 08:55:00,
2013-04-07 03:00:00,48.4,32.6,29.84,WSW,238,0.0,0.0,54,0.00,,---,0.00,VWS V14.01,2013-04-07 09:00:00,
2013-04-07 03:05:00,48.2,32.6,29.84,WSW,238,0.0,0.0,55,0.00,,---,0.00,VWS V14.01,2013-04-07 09:05:00,
2013-04-07 03:10:00,47.8,32.6,29.84,WSW,238,0.0,0.0,55,0.00,,---,0.00,VWS V14.01,2013-04-07 09:10:00,
2013-04-07 03:15:00,47.5,32.7,29.84,WSW,238,0.0,0.0,56,0.00,,---,0.00,VWS V14.01,2013-04-07 09:15:00,
2013-04-07 03:20:00,47.2,33.1,29.84,WSW,238,0.0,0.0,58,0.00,,---,0.00,VWS V14.01,2013-04-07 09:20:00,
2013-04-07 03:25:00,46.9,32.9,29.84,WSW,238,0.0,0.0,58,0.00,,---,0.00,VWS V14.01,2013-04-07 09:25:00,
2013-04-07 03:30:00,46.6,32.9,29.83,WSW,238,0.0,0.0,59,0.00,,---,0.00,VWS V14.01,2013-04-07 09:30:00,
2013-04-07 03:35:00,46.3,32.9,29.84,WSW,238,0.0,0.0,59,0.00,,---,0.00,VWS V14.01,2013-04-07 09:35:00,
2013-04-07 03:40:00,46.0,32.9,29.83,WSW,238,0.0,0.0,60,0.00,,---,0.00,VWS V14.01,2013-04-07 09:40:00,
2013-04-07 03:46:00,45.6,32.9,29.83,WSW,238,0.0,0.0,61,0.00,,---,0.00,VWS V14.01,2013-04-07 09:46:00,
2013-04-07 03:51:00,45.3,33.0,29.84,WSW,238,0.0,0.0,62,0.00,,---,0.00,VWS V14.01,2013-04-07 09:51:00,
2013-04-07 03:56:00,45.1,33.2,29.84,WSW,238,0.0,0.0,63,0.00,,---,0.00,VWS V14.01,2013-04-07 09:56:00,
2013-04-07 04:01:00,45.2,32.9,29.84,WSW,238,0.0,0.0,62,0.00,,---,0.00,VWS V14.01,2013-04-07 10:01:00,
2013-04-07 04:07:00,45.6,31.6,29.83,NE,34,0.0,0.0,58,0.00,,---,0.00,VWS V14.01,2013-04-07 10:07:00,
2013-04-07 04:12:00,46.2,30.2,29.83,NE,41,7.1,7.7,53,0.00,,---,0.00,VWS V14.01,2013-04-07 10:12:00,
2013-04-07 04:17:00,47.0,29.1,29.83,NNW,332,3.1,5.0,50,0.00,,---,0.00,VWS V14.01,2013-04-07 10:17:00,
2013-04-07 04:22:00,47.7,28.3,29.83,North,353,2.9,4.3,47,0.00,,---,0.00,VWS V14.01,2013-04-07 10:22:00,
2013-04-07 04:27:00,48.3,27.5,29.84,North,359,8.2,9.4,44,0.00,,---,0.00,VWS V14.01,2013-04-07 10:27:00,
2013-04-07 04:32:00,48.8,27.1,29.84,North,359,0.0,0.0,43,0.00,,---,0.00,VWS V14.01,2013-04-07 10:32:00,
2013-04-07 04:37:00,49.0,27.1,29.84,North,359,0.0,0.0,42,0.00,,---,0.00,VWS V14.01,2013-04-07 10:37:00,
2013-04-07 04:42:00,49.1,27.3,29.84,North,359,0.0,0.0,42,0.00,,---,0.00,VWS V14.01,2013-04-07 10:42:00,
2013-04-07 04:47:00,48.9,28.8,29.84,North,359,0.0,0.0,46,0.00,,---,0.00,VWS V14.01,2013-04-07 10:47:00,
2013-04-07 04:52:00,48.5,30.0,29.84,North,359,0.0,0.0,49,0.00,,---,0.00,VWS V14.01,2013-04-07 10:52:00,
2013-04-07 04:57:00,48.0,31.5,29.84,North,359,0.0,0.0,52,0.00,,---,0.00,VWS V14.01,2013-04-07 10:57:00,
2013-04-07 05:02:00,47.5,32.7,29.84,North,359,0.0,0.0,56,0.00,,---,0.00,VWS V14.01,2013-04-07 11:02:00,
2013-04-07 05:07:00,47.1,33.5,29.84,North,359,0.0,0.0,59,0.00,,---,0.00,VWS V14.01,2013-04-07 11:07:00,
2013-04-07 05:12:00,46.7,34.2,29.84,North,359,0.0,0.0,62,0.00,,---,0.00,VWS V14.01,2013-04-07 11:12:00,
2013-04-07 05:17:00,46.3,34.8,29.84,NNE,27,0.0,0.0,64,0.00,,---,0.00,VWS V14.01,2013-04-07 11:17:00,
2013-04-07 05:22:00,46.0,35.2,29.84,East,80,0.0,0.0,66,0.00,,---,0.00,VWS V14.01,2013-04-07 11:22:00,
2013-04-07 05:27:00,45.7,35.6,29.84,ENE,68,0.0,0.0,68,0.00,,---,0.00,VWS V14.01,2013-04-07 11:27:00,
2013-04-07 05:32:00,45.3,35.9,29.84,East,84,0.0,0.0,69,0.00,,---,0.00,VWS V14.01,2013-04-07 11:32:00,
2013-04-07 05:37:00,45.0,36.2,29.85,NE,48,0.0,0.0,71,0.00,,---,0.00,VWS V14.01,2013-04-07 11:37:00,
2013-04-07 05:42:00,44.8,36.4,29.85,NE,48,0.0,0.0,72,0.00,,---,0.00,VWS V14.01,2013-04-07 11:42:00,
2013-04-07 05:47:00,44.7,36.6,29.84,NE,48,0.0,0.0,73,0.00,,---,0.00,VWS V14.01,2013-04-07 11:47:00,
2013-04-07 05:52:00,44.6,36.7,29.84,NE,48,0.0,0.0,74,0.00,,---,0.00,VWS V14.01,2013-04-07 11:52:00,
2013-04-07 05:57:00,44.4,36.6,29.85,NE,48,0.0,0.0,74,0.00,,---,0.00,VWS V14.01,2013-04-07 11:57:00,
2013-04-07 06:02:00,44.2,36.5,29.85,NE,48,0.0,0.0,74,0.00,,---,0.00,VWS V14.01,2013-04-07 12:02:00,
2013-04-07 06:07:00,43.9,36.3,29.85,NE,48,0.0,0.0,74,0.00,,---,0.00,VWS V14.01,2013-04-07 12:07:00,
2013-04-07 06:12:00,43.6,36.2,29.85,NE,48,0.0,0.0,75,0.00,,---,0.00,VWS V14.01,2013-04-07 12:12:00,
2013-04-07 06:17:00,43.4,36.3,29.85,NE,48,0.0,0.0,76,0.00,,---,0.00,VWS V14.01,2013-04-07 12:17:00,
2013-04-07 06:22:00,43.1,36.1,29.84,NE,48,0.0,0.0,76,0.00,,---,0.00,VWS V14.01,2013-04-07 12:22:00,
2013-04-07 06:27:00,42.8,36.1,29.84,NE,48,0.0,0.0,77,0.00,,---,0.00,VWS V14.01,2013-04-07 12:27:00,
2013-04-07 06:33:00,42.7,36.2,29.85,NE,48,0.0,0.0,78,0.00,,---,0.00,VWS V14.01,2013-04-07 12:33:00,
2013-04-07 06:38:00,42.6,36.2,29.85,NE,48,0.0,0.0,78,0.00,,---,0.00,VWS V14.01,2013-04-07 12:38:00,
2013-04-07 06:43:00,42.5,36.2,29.85,NE,48,0.0,0.0,78,0.00,,---,0.00,VWS V14.01,2013-04-07 12:43:00,
2013-04-07 06:48:00,42.6,36.4,29.85,NE,48,0.0,0.0,78,0.00,,---,0.00,VWS V14.01,2013-04-07 12:48:00,
2013-04-07 06:53:00,42.6,36.4,29.85,NE,48,0.0,0.0,78,0.00,,---,0.00,VWS V14.01,2013-04-07 12:53:00,
2013-04-07 06:58:00,42.5,36.5,29.86,NE,48,0.0,0.0,79,0.00,,---,0.00,VWS V14.01,2013-04-07 12:58:00,
2013-04-07 07:03:00,42.5,36.7,29.86,NE,48,0.0,0.0,80,0.00,,---,0.00,VWS V14.01,2013-04-07 13:03:00,
2013-04-07 07:08:00,42.6,36.8,29.86,NE,48,0.0,0.0,80,0.00,,---,0.00,VWS V14.01,2013-04-07 13:08:00,
2013-04-07 07:13:00,42.7,36.9,29.86,NE,48,0.0,0.0,80,0.00,,---,0.00,VWS V14.01,2013-04-07 13:13:00,
2013-04-07 07:18:00,42.7,36.9,29.86,NE,48,0.0,0.0,80,0.00,,---,0.00,VWS V14.01,2013-04-07 13:18:00,
2013-04-07 07:23:00,42.7,36.9,29.86,NE,48,0.0,0.0,80,0.00,,---,0.00,VWS V14.01,2013-04-07 13:23:00,
2013-04-07 07:28:00,43.0,36.9,29.86,NE,48,0.0,0.0,79,0.00,,---,0.00,VWS V14.01,2013-04-07 13:28:00,
2013-04-07 07:33:00,43.4,36.8,29.86,NE,48,0.0,0.0,77,0.00,,---,0.00,VWS V14.01,2013-04-07 13:33:00,
2013-04-07 07:38:00,43.9,36.4,29.86,NE,48,0.0,0.0,75,0.00,,---,0.00,VWS V14.01,2013-04-07 13:38:00,
2013-04-07 07:43:00,44.5,36.0,29.86,NE,48,0.0,0.0,72,0.00,,---,0.00,VWS V14.01,2013-04-07 13:43:00,
2013-04-07 07:48:00,45.1,36.6,29.86,NE,48,0.0,0.0,72,0.00,,---,0.00,VWS V14.01,2013-04-07 13:48:00,
2013-04-07 07:53:00,45.5,36.8,29.86,NE,48,0.0,0.0,71,0.00,,---,0.00,VWS V14.01,2013-04-07 13:53:00,
2013-04-07 07:58:00,45.7,36.3,29.86,NE,48,0.0,0.0,70,0.00,,---,0.00,VWS V14.01,2013-04-07 13:58:00,
2013-04-07 08:03:00,46.0,37.0,29.86,West,264,0.0,0.0,70,0.00,,---,0.00,VWS V14.01,2013-04-07 14:03:00,
2013-04-07 08:08:00,46.2,37.7,29.86,SW,229,0.0,0.0,72,0.00,,---,0.00,VWS V14.01,2013-04-07 14:08:00,
2013-04-07 08:13:00,46.4,37.5,29.86,SW,229,0.0,0.0,71,0.00,,---,0.00,VWS V14.01,2013-04-07 14:13:00,
2013-04-07 08:18:00,46.8,37.1,29.86,SW,229,0.0,0.0,69,0.00,,---,0.00,VWS V14.01,2013-04-07 14:18:00,
2013-04-07 08:23:00,47.3,36.5,29.85,SW,229,0.0,0.0,66,0.00,,---,0.00,VWS V14.01,2013-04-07 14:23:00,
2013-04-07 08:28:00,47.9,36.9,29.85,SW,229,0.0,0.0,66,0.00,,---,0.00,VWS V14.01,2013-04-07 14:28:00,
2013-04-07 08:33:00,48.4,36.3,29.85,SW,229,0.0,0.0,63,0.00,,---,0.00,VWS V14.01,2013-04-07 14:33:00,
2013-04-07 08:38:00,48.9,36.9,29.85,SW,229,0.0,0.0,63,0.00,,---,0.00,VWS V14.01,2013-04-07 14:38:00,
2013-04-07 08:43:00,49.4,37.2,29.84,SW,215,1.7,3.1,63,0.00,,---,0.00,VWS V14.01,2013-04-07 14:43:00,
2013-04-07 08:48:00,49.8,36.7,29.84,West,276,0.0,0.0,60,0.00,,---,0.00,VWS V14.01,2013-04-07 14:48:00,
2013-04-07 08:53:00,50.4,36.6,29.84,SW,236,3.4,5.0,59,0.00,,---,0.00,VWS V14.01,2013-04-07 14:53:00,
2013-04-07 08:59:00,50.8,35.8,29.84,West,264,3.5,4.6,56,0.00,,---,0.00,VWS V14.01,2013-04-07 14:59:00,
2013-04-07 09:04:00,51.4,35.3,29.84,West,260,0.0,0.0,54,0.00,,---,0.00,VWS V14.01,2013-04-07 15:04:00,
2013-04-07 09:09:00,51.8,34.9,29.84,West,274,0.0,2.6,52,0.00,,---,0.00,VWS V14.01,2013-04-07 15:09:00,
2013-04-07 09:14:00,52.2,34.8,29.84,WNW,284,0.0,2.4,51,0.00,,---,0.00,VWS V14.01,2013-04-07 15:14:00,
2013-04-07 09:19:00,52.6,34.0,29.83,WNW,290,4.2,4.7,49,0.00,,---,0.00,VWS V14.01,2013-04-07 15:19:00,
2013-04-07 09:24:00,52.8,33.5,29.83,West,266,2.6,3.2,48,0.00,,---,0.00,VWS V14.01,2013-04-07 15:24:00,
2013-04-07 09:29:00,53.2,34.5,29.83,SW,219,0.0,0.0,49,0.00,,---,0.00,VWS V14.01,2013-04-07 15:29:00,
2013-04-07 09:34:00,53.6,33.8,29.82,SW,219,0.0,0.0,47,0.00,,---,0.00,VWS V14.01,2013-04-07 15:34:00,
2013-04-07 09:39:00,53.8,31.0,29.82,West,259,0.0,0.0,42,0.00,,---,0.00,VWS V14.01,2013-04-07 15:39:00,
2013-04-07 09:44:00,53.9,31.3,29.82,NW,312,5.8,8.3,42,0.00,,---,0.00,VWS V14.01,2013-04-07 15:44:00,
2013-04-07 09:49:00,54.1,31.2,29.81,West,267,0.0,0.0,42,0.00,,---,0.00,VWS V14.01,2013-04-07 15:49:00,
2013-04-07 09:54:00,54.5,31.5,29.81,West,267,0.0,0.0,41,0.00,,---,0.00,VWS V14.01,2013-04-07 15:54:00,
2013-04-07 09:59:00,54.9,30.6,29.81,WNW,294,3.5,3.5,39,0.00,,---,0.00,VWS V14.01,2013-04-07 15:59:00,
2013-04-07 10:04:00,55.5,28.7,29.81,WSW,257,0.0,0.0,36,0.00,,---,0.00,VWS V14.01,2013-04-07 16:04:00,
2013-04-07 10:09:00,55.9,28.0,29.81,WSW,256,0.0,5.3,34,0.00,,---,0.00,VWS V14.01,2013-04-07 16:09:00,
2013-04-07 10:14:00,56.3,26.4,29.81,WNW,288,3.2,6.5,31,0.00,,---,0.00,VWS V14.01,2013-04-07 16:14:00,
2013-04-07 10:20:00,56.5,26.3,29.81,NW,322,7.5,12.1,31,0.00,,---,0.00,VWS V14.01,2013-04-07 16:20:00,
2013-04-07 10:25:00,56.7,25.8,29.81,WNW,294,5.1,9.5,30,0.00,,---,0.00,VWS V14.01,2013-04-07 16:25:00,
2013-04-07 10:30:00,56.9,25.6,29.80,WNW,295,4.6,6.1,30,0.00,,---,0.00,VWS V14.01,2013-04-07 16:30:00,
2013-04-07 10:35:00,57.3,25.8,29.81,NW,307,9.5,13.6,30,0.00,,---,0.00,VWS V14.01,2013-04-07 16:35:00,
2013-04-07 10:40:00,57.6,25.0,29.80,NNW,343,6.1,8.5,28,0.00,,---,0.00,VWS V14.01,2013-04-07 16:40:00,
2013-04-07 10:45:00,58.0,26.4,29.80,West,264,6.7,6.7,30,0.00,,---,0.00,VWS V14.01,2013-04-07 16:45:00,
2013-04-07 10:50:00,58.4,26.5,29.80,WNW,284,5.8,6.2,29,0.00,,---,0.00,VWS V14.01,2013-04-07 16:50:00,
2013-04-07 10:55:00,58.9,26.7,29.80,WSW,248,4.9,6.1,29,0.00,,---,0.00,VWS V14.01,2013-04-07 16:55:00,
2013-04-07 11:00:00,59.4,26.3,29.80,WSW,257,0.0,0.0,28,0.00,,---,0.00,VWS V14.01,2013-04-07 17:00:00,
2013-04-07 11:05:00,59.9,26.0,29.79,West,281,3.3,7.4,27,0.00,,---,0.00,VWS V14.01,2013-04-07 17:05:00,
2013-04-07 11:10:00,60.2,26.2,29.79,WSW,238,5.8,8.8,27,0.00,,---,0.00,VWS V14.01,2013-04-07 17:10:00,
2013-04-07 11:15:00,60.5,25.3,29.79,West,274,4.5,4.5,26,0.00,,---,0.00,VWS V14.01,2013-04-07 17:15:00,
2013-04-07 11:20:00,60.6,24.8,29.79,West,266,0.0,0.0,25,0.00,,---,0.00,VWS V14.01,2013-04-07 17:20:00,
2013-04-07 11:26:00,60.7,23.3,29.79,NNE,24,7.0,9.7,24,0.00,,---,0.00,VWS V14.01,2013-04-07 17:26:00,
2013-04-07 11:31:00,60.7,24.9,29.79,WSW,256,0.0,0.0,25,0.00,,---,0.00,VWS V14.01,2013-04-07 17:31:00,
2013-04-07 11:36:00,61.2,25.1,29.79,West,262,0.0,0.0,25,0.00,,---,0.00,VWS V14.01,2013-04-07 17:36:00,
2013-04-07 11:41:00,61.7,24.8,29.79,WNW,295,0.0,0.0,24,0.00,,---,0.00,VWS V14.01,2013-04-07 17:41:00,
2013-04-07 11:46:00,62.1,24.3,29.78,West,269,11.2,12.1,23,0.00,,---,0.00,VWS V14.01,2013-04-07 17:46:00,
2013-04-07 11:51:00,62.4,23.6,29.79,WSW,256,6.2,6.2,22,0.00,,---,0.00,VWS V14.01,2013-04-07 17:51:00,
2013-04-07 11:56:00,62.6,22.8,29.78,North,359,0.0,0.0,22,0.00,,---,0.00,VWS V14.01,2013-04-07 17:56:00,
2013-04-07 12:02:00,62.6,23.5,29.78,NNW,336,4.8,5.4,22,0.00,,---,0.00,VWS V14.01,2013-04-07 18:02:00,
2013-04-07 12:07:00,62.8,24.3,29.77,SSW,202,0.0,0.0,23,0.00,,---,0.00,VWS V14.01,2013-04-07 18:07:00,
2013-04-07 12:12:00,63.5,23.8,29.77,WSW,255,0.0,0.0,22,0.00,,---,0.00,VWS V14.01,2013-04-07 18:12:00,
2013-04-07 12:17:00,64.0,23.0,29.76,NW,307,0.0,0.0,21,0.00,,---,0.00,VWS V14.01,2013-04-07 18:17:00,
2013-04-07 12:22:00,64.1,23.2,29.76,West,263,0.0,0.0,21,0.00,,---,0.00,VWS V14.01,2013-04-07 18:22:00,
2013-04-07 12:27:00,64.5,22.1,29.76,NW,308,0.0,0.0,20,0.00,,---,0.00,VWS V14.01,2013-04-07 18:27:00,
2013-04-07 12:32:00,64.8,20.2,29.76,WNW,288,6.2,7.9,18,0.00,,---,0.00,VWS V14.01,2013-04-07 18:32:00,
2013-04-07 12:37:00,64.8,19.3,29.75,North,350,5.3,5.6,17,0.00,,---,0.00,VWS V14.01,2013-04-07 18:37:00,
2013-04-07 12:42:00,64.8,19.8,29.76,NNE,13,10.3,10.4,18,0.00,,---,0.00,VWS V14.01,2013-04-07 18:42:00,
2013-04-07 12:47:00,64.8,19.3,29.75,NNE,15,0.0,0.0,17,0.00,,---,0.00,VWS V14.01,2013-04-07 18:47:00,
2013-04-07 12:52:00,65.1,19.0,29.75,North,354,5.5,5.8,17,0.00,,---,0.00,VWS V14.01,2013-04-07 18:52:00,
2013-04-07 12:57:00,64.7,18.9,29.74,North,359,4.5,6.5,17,0.00,,---,0.00,VWS V14.01,2013-04-07 18:57:00,
2013-04-07 13:02:00,64.6,19.5,29.74,WNW,297,7.1,9.9,18,0.00,,---,0.00,VWS V14.01,2013-04-07 19:02:00,
2013-04-07 13:07:00,64.6,19.2,29.74,NNE,13,8.1,9.4,17,0.00,,---,0.00,VWS V14.01,2013-04-07 19:07:00,
2013-04-07 13:12:00,64.8,19.3,29.74,North,11,5.4,7.3,17,0.00,,---,0.00,VWS V14.01,2013-04-07 19:12:00,
2013-04-07 13:17:00,64.9,20.3,29.74,WNW,295,4.3,4.8,18,0.00,,---,0.00,VWS V14.01,2013-04-07 19:17:00,
2013-04-07 13:22:00,65.0,18.6,29.74,NNW,346,7.0,14.4,17,0.00,,---,0.00,VWS V14.01,2013-04-07 19:22:00,
2013-04-07 13:27:00,64.2,19.6,29.74,North,359,0.0,0.0,18,0.00,,---,0.00,VWS V14.01,2013-04-07 19:27:00,
2013-04-07 13:32:00,63.6,19.7,29.74,West,263,0.0,0.0,18,0.00,,---,0.00,VWS V14.01,2013-04-07 19:32:00,
2013-04-07 13:37:00,63.7,21.1,29.74,West,269,0.0,0.0,19,0.00,,---,0.00,VWS V14.01,2013-04-07 19:37:00,
2013-04-07 13:42:00,63.2,19.4,29.74,North,352,3.5,6.7,18,0.00,,---,0.00,VWS V14.01,2013-04-07 19:42:00,
2013-04-07 13:47:00,62.5,19.7,29.74,North,352,0.0,0.0,19,0.00,,---,0.00,VWS V14.01,2013-04-07 19:47:00,
2013-04-07 13:52:00,62.6,20.0,29.74,North,359,0.0,5.2,19,0.00,,---,0.00,VWS V14.01,2013-04-07 19:52:00,
2013-04-07 13:57:00,63.7,22.6,29.73,North,359,0.0,0.0,21,0.00,,---,0.00,VWS V14.01,2013-04-07 19:57:00,
2013-04-07 14:02:00,64.7,20.4,29.73,NNE,24,0.0,0.0,18,0.00,,---,0.00,VWS V14.01,2013-04-07 20:02:00,
2013-04-07 14:07:00,64.9,20.4,29.73,NNE,24,0.0,0.0,18,0.00,,---,0.00,VWS V14.01,2013-04-07 20:07:00,
2013-04-07 14:12:00,65.1,20.7,29.73,North,0,4.5,7.3,18,0.00,,---,0.00,VWS V14.01,2013-04-07 20:12:00,
2013-04-07 14:17:00,64.2,21.0,29.73,North,359,8.5,12.4,19,0.00,,---,0.00,VWS V14.01,2013-04-07 20:17:00,
2013-04-07 14:22:00,63.2,21.0,29.73,ENE,65,7.0,8.7,20,0.00,,---,0.00,VWS V14.01,2013-04-07 20:22:00,
2013-04-07 14:28:00,62.4,21.1,29.73,NNW,330,9.8,10.7,20,0.00,,---,0.00,VWS V14.01,2013-04-07 20:28:00,
2013-04-07 14:32:00,61.9,21.0,29.73,NE,42,9.8,11.4,20,0.00,,---,0.00,VWS V14.01,2013-04-07 20:32:00,
2013-04-07 14:38:00,61.7,21.6,29.73,NNW,336,7.3,7.5,21,0.00,,---,0.00,VWS V14.01,2013-04-07 20:38:00,
2013-04-07 14:43:00,61.3,21.3,29.73,NE,45,7.4,7.4,21,0.00,,---,0.00,VWS V14.01,2013-04-07 20:43:00,
2013-04-07 14:48:00,60.9,22.0,29.74,NNE,30,6.1,8.0,22,0.00,,---,0.00,VWS V14.01,2013-04-07 20:48:00,
2013-04-07 14:53:00,60.5,23.0,29.74,North,359,5.0,6.9,24,0.00,,---,0.00,VWS V14.01,2013-04-07 20:53:00,
2013-04-07 14:58:00,59.8,27.0,29.74,NNW,333,4.3,11.7,28,0.00,,---,0.00,VWS V14.01,2013-04-07 20:58:00,
2013-04-07 15:03:00,59.8,27.0,29.74,NNW,336,11.0,15.3,28,0.00,,---,0.00,VWS V14.01,2013-04-07 21:03:00,
2013-04-07 15:08:00,59.9,24.0,29.74,NW,326,11.4,13.9,25,0.00,,---,0.00,VWS V14.01,2013-04-07 21:08:00,
2013-04-07 15:13:00,60.4,24.0,29.74,NW,315,5.9,6.3,24,0.00,,---,0.00,VWS V14.01,2013-04-07 21:13:00,
2013-04-07 15:18:00,61.7,24.4,29.74,WNW,292,9.4,9.4,24,0.00,,---,0.00,VWS V14.01,2013-04-07 21:18:00,
2013-04-07 15:23:00,63.3,23.3,29.73,WNW,294,5.8,6.6,22,0.00,,---,0.00,VWS V14.01,2013-04-07 21:23:00,
2013-04-07 15:28:00,63.7,22.6,29.73,NW,314,6.0,9.3,21,0.00,,---,0.00,VWS V14.01,2013-04-07 21:28:00,
2013-04-07 15:33:00,64.2,22.8,29.73,NW,305,6.8,7.8,20,0.00,,---,0.00,VWS V14.01,2013-04-07 21:33:00,
2013-04-07 15:39:00,64.7,22.4,29.73,NNE,32,0.0,0.0,20,0.00,,---,0.00,VWS V14.01,2013-04-07 21:39:00,
2013-04-07 15:44:00,65.2,22.3,29.72,North,359,0.0,0.0,19,0.00,,---,0.00,VWS V14.01,2013-04-07 21:44:00,
2013-04-07 15:49:00,65.0,23.0,29.72,North,359,0.0,0.0,20,0.00,,---,0.00,VWS V14.01,2013-04-07 21:49:00,
2013-04-07 15:54:00,65.4,23.3,29.72,North,359,0.0,0.0,20,0.00,,---,0.00,VWS V14.01,2013-04-07 21:54:00,
2013-04-07 15:59:00,65.4,22.8,29.72,North,359,0.0,0.0,20,0.00,,---,0.00,VWS V14.01,2013-04-07 21:59:00,
2013-04-07 16:04:00,64.9,22.7,29.73,North,359,0.0,0.0,20,0.00,,---,0.00,VWS V14.01,2013-04-07 22:04:00,
2013-04-07 16:09:00,64.2,23.1,29.73,North,359,0.0,0.0,21,0.00,,---,0.00,VWS V14.01,2013-04-07 22:09:00,
2013-04-07 16:14:00,64.3,23.6,29.72,North,359,0.0,0.0,21,0.00,,---,0.00,VWS V14.01,2013-04-07 22:14:00,
2013-04-07 16:19:00,64.4,22.6,29.72,North,359,0.0,0.0,20,0.00,,---,0.00,VWS V14.01,2013-04-07 22:19:00,
2013-04-07 16:24:00,64.1,22.7,29.72,North,359,0.0,0.0,20,0.00,,---,0.00,VWS V14.01,2013-04-07 22:24:00,
2013-04-07 16:29:00,63.9,21.6,29.72,North,359,0.0,0.0,20,0.00,,---,0.00,VWS V14.01,2013-04-07 22:29:00,
2013-04-07 16:34:00,63.6,22.4,29.73,North,359,0.0,0.0,20,0.00,,---,0.00,VWS V14.01,2013-04-07 22:34:00,
2013-04-07 16:39:00,63.6,20.9,29.72,North,359,0.0,0.0,19,0.00,,---,0.00,VWS V14.01,2013-04-07 22:39:00,
2013-04-07 16:44:00,63.4,18.5,29.72,North,359,0.0,0.0,18,0.00,,---,0.00,VWS V14.01,2013-04-07 22:44:00,
2013-04-07 16:49:00,63.7,19.8,29.72,North,359,0.0,0.0,18,0.00,,---,0.00,VWS V14.01,2013-04-07 22:49:00,
2013-04-07 16:54:00,64.2,19.0,29.72,North,359,0.0,0.0,17,0.00,,---,0.00,VWS V14.01,2013-04-07 22:54:00,
2013-04-07 17:00:00,64.3,19.0,29.72,North,359,0.0,0.0,17,0.00,,---,0.00,VWS V14.01,2013-04-07 23:00:00,
2013-04-07 17:05:00,63.9,18.5,29.72,North,359,0.0,0.0,17,0.00,,---,0.00,VWS V14.01,2013-04-07 23:05:00,
2013-04-07 17:10:00,63.8,19.4,29.71,North,359,0.0,0.0,18,0.00,,---,0.00,VWS V14.01,2013-04-07 23:10:00,
2013-04-07 17:15:00,63.7,19.3,29.71,North,359,0.0,0.0,18,0.00,,---,0.00,VWS V14.01,2013-04-07 23:15:00,
2013-04-07 17:20:00,63.5,18.7,29.71,North,359,0.0,0.0,18,0.00,,---,0.00,VWS V14.01,2013-04-07 23:20:00,
2013-04-07 17:25:00,62.9,18.8,29.71,NNE,15,6.3,7.3,18,0.00,,---,0.00,VWS V14.01,2013-04-07 23:25:00,
2013-04-07 17:30:00,63.0,19.5,29.71,North,356,9.8,12.4,18,0.00,,---,0.00,VWS V14.01,2013-04-07 23:30:00,
2013-04-07 17:35:00,63.3,20.9,29.71,WNW,301,0.0,5.2,19,0.00,,---,0.00,VWS V14.01,2013-04-07 23:35:00,
2013-04-07 17:40:00,63.8,22.3,29.71,NNW,345,0.0,0.0,20,0.00,,---,0.00,VWS V14.01,2013-04-07 23:40:00,
2013-04-07 17:45:00,64.1,20.4,29.71,NNW,345,0.0,0.0,18,0.00,,---,0.00,VWS V14.01,2013-04-07 23:45:00,
2013-04-07 17:50:00,63.8,18.7,29.71,NNW,345,0.0,0.0,17,0.00,,---,0.00,VWS V14.01,2013-04-07 23:50:00,
2013-04-07 17:55:00,63.5,18.2,29.71,North,8,0.0,0.0,17,0.00,,---,0.00,VWS V14.01,2013-04-07 23:55:00,
2013-04-07 18:00:00,63.2,18.5,29.71,North,4,0.0,3.5,18,0.00,,---,0.00,VWS V14.01,2013-04-08 00:00:00,
2013-04-07 18:05:00,63.0,18.6,29.71,NW,318,0.0,0.0,18,0.00,,---,0.00,VWS V14.01,2013-04-08 00:05:00,
2013-04-07 18:10:00,62.7,18.5,29.71,NNW,343,3.2,6.3,18,0.00,,---,0.00,VWS V14.01,2013-04-08 00:10:00,
2013-04-07 18:15:00,62.7,18.7,29.71,WNW,298,5.7,7.9,18,0.00,,---,0.00,VWS V14.01,2013-04-08 00:15:00,
2013-04-07 18:20:00,62.5,18.7,29.71,NNW,343,0.0,0.0,18,0.00,,---,0.00,VWS V14.01,2013-04-08 00:20:00,
2013-04-07 18:25:00,62.3,18.7,29.71,North,359,6.8,8.3,18,0.00,,---,0.00,VWS V14.01,2013-04-08 00:25:00,
2013-04-07 18:30:00,62.2,19.6,29.71,WNW,291,4.3,5.3,19,0.00,,---,0.00,VWS V14.01,2013-04-08 00:30:00,
2013-04-07 18:35:00,62.2,19.8,29.71,NW,308,3.5,5.2,19,0.00,,---,0.00,VWS V14.01,2013-04-08 00:35:00,
2013-04-07 18:40:00,61.9,18.8,29.71,North,7,0.0,5.0,19,0.00,,---,0.00,VWS V14.01,2013-04-08 00:40:00,
2013-04-07 18:45:00,61.7,19.6,29.71,NW,322,14.0,15.8,20,0.00,,---,0.00,VWS V14.01,2013-04-08 00:45:00,
2013-04-07 18:50:00,61.3,18.8,29.71,NNW,345,5.9,10.2,19,0.00,,---,0.00,VWS V14.01,2013-04-08 00:50:00,
2013-04-07 18:55:00,60.9,18.6,29.71,NE,38,4.6,9.8,19,0.00,,---,0.00,VWS V14.01,2013-04-08 00:55:00,
2013-04-07 19:00:00,60.6,19.0,29.71,North,359,6.8,10.7,20,0.00,,---,0.00,VWS V14.01,2013-04-08 01:00:00,
2013-04-07 19:05:00,60.4,19.2,29.72,NE,46,0.0,3.5,20,0.00,,---,0.00,VWS V14.01,2013-04-08 01:05:00,
2013-04-07 19:10:00,60.1,19.4,29.71,North,8,7.0,7.0,20,0.00,,---,0.00,VWS V14.01,2013-04-08 01:10:00,
2013-04-07 19:15:00,59.9,20.1,29.71,North,359,0.0,0.0,21,0.00,,---,0.00,VWS V14.01,2013-04-08 01:15:00,
2013-04-07 19:20:00,59.8,20.5,29.71,NW,305,0.0,0.0,22,0.00,,---,0.00,VWS V14.01,2013-04-08 01:20:00,
2013-04-07 19:25:00,59.6,20.5,29.72,NNW,336,5.0,6.7,22,0.00,,---,0.00,VWS V14.01,2013-04-08 01:25:00,
2013-04-07 19:30:00,59.4,21.2,29.72,NNW,335,7.0,7.9,23,0.00,,---,0.00,VWS V14.01,2013-04-08 01:30:00,
2013-04-07 19:35:00,59.1,21.4,29.72,NW,305,0.0,0.0,23,0.00,,---,0.00,VWS V14.01,2013-04-08 01:35:00,
2013-04-07 19:40:00,58.8,21.7,29.72,North,352,0.0,0.0,24,0.00,,---,0.00,VWS V14.01,2013-04-08 01:40:00,
2013-04-07 19:45:00,58.6,21.8,29.73,North,352,0.0,0.0,24,0.00,,---,0.00,VWS V14.01,2013-04-08 01:45:00,
2013-04-07 19:50:00,58.4,22.2,29.74,NNW,338,0.0,0.0,24,0.00,,---,0.00,VWS V14.01,2013-04-08 01:50:00,
2013-04-07 19:55:00,58.3,22.6,29.74,NNW,340,3.4,8.2,25,0.00,,---,0.00,VWS V14.01,2013-04-08 01:55:00,
2013-04-07 20:01:00,58.0,22.9,29.74,North,0,0.0,0.0,26,0.00,,---,0.00,VWS V14.01,2013-04-08 02:01:00,
2013-04-07 20:06:00,57.9,23.4,29.74,NNW,343,8.6,8.6,26,0.00,,---,0.00,VWS V14.01,2013-04-08 02:06:00,
2013-04-07 20:11:00,57.7,23.9,29.75,North,359,0.0,0.0,27,0.00,,---,0.00,VWS V14.01,2013-04-08 02:11:00,
2013-04-07 20:16:00,57.5,24.0,29.75,NNW,339,6.2,9.9,27,0.00,,---,0.00,VWS V14.01,2013-04-08 02:16:00,
2013-04-07 20:21:00,57.3,23.7,29.73,NNE,22,4.8,5.4,27,0.00,,---,0.00,VWS V14.01,2013-04-08 02:21:00,
2013-04-07 20:26:00,56.9,24.0,29.74,NW,321,6.7,7.5,28,0.00,,---,0.00,VWS V14.01,2013-04-08 02:26:00,
2013-04-07 20:31:00,56.4,25.2,29.74,NNW,329,3.0,4.7,30,0.00,,---,0.00,VWS V14.01,2013-04-08 02:31:00,
2013-04-07 20:36:00,55.8,26.0,29.73,NNW,332,0.0,6.0,31,0.00,,---,0.00,VWS V14.01,2013-04-08 02:36:00,
2013-04-07 20:41:00,55.5,26.7,29.73,NNW,339,3.2,3.2,33,0.00,,---,0.00,VWS V14.01,2013-04-08 02:41:00,
2013-04-07 20:46:00,54.9,27.4,29.74,NNE,21,4.9,7.6,34,0.00,,---,0.00,VWS V14.01,2013-04-08 02:46:00,
2013-04-07 20:51:00,54.2,27.8,29.74,North,0,4.5,4.5,36,0.00,,---,0.00,VWS V14.01,2013-04-08 02:51:00,
2013-04-07 20:57:00,54.0,28.1,29.74,NNW,333,0.0,0.0,37,0.00,,---,0.00,VWS V14.01,2013-04-08 02:57:00,
2013-04-07 20:58:00,51.8,29.5,29.73,West,271,0.0,0.0,42,0.00,,---,0.00,VWS V14.01,2013-04-08 02:58:00,
2013-04-07 20:59:00,51.8,29.5,29.73,West,271,0.0,0.0,42,0.00,,---,0.00,VWS V14.01,2013-04-08 02:59:00,
2013-04-07 21:00:00,51.7,29.5,29.73,West,271,0.0,0.0,42,0.00,,---,0.00,VWS V14.01,2013-04-08 03:00:00,
2013-04-07 21:01:00,51.7,29.6,29.73,West,271,0.0,0.0,42,0.00,,---,0.00,VWS V14.01,2013-04-08 03:01:00,
2013-04-07 21:02:00,53.6,28.4,29.74,NNW,345,0.0,0.0,38,0.00,,---,0.00,VWS V14.01,2013-04-08 03:02:00,
2013-04-07 21:03:00,51.5,29.6,29.73,West,271,0.0,0.0,43,0.00,,---,0.00,VWS V14.01,2013-04-08 03:03:00,
2013-04-07 21:04:00,51.4,29.5,29.73,West,271,0.0,0.0,43,0.00,,---,0.00,VWS V14.01,2013-04-08 03:04:00,
2013-04-07 21:05:00,51.5,29.6,29.73,West,271,0.0,0.0,43,0.00,,---,0.00,VWS V14.01,2013-04-08 03:05:00,
2013-04-07 21:06:00,51.4,29.6,29.73,West,271,0.0,0.0,43,0.00,,---,0.00,VWS V14.01,2013-04-08 03:06:00,
2013-04-07 21:07:00,53.4,28.8,29.74,NNW,345,0.0,0.0,39,0.00,,---,0.00,VWS V14.01,2013-04-08 03:07:00,
2013-04-07 21:08:00,51.3,29.8,29.73,West,271,0.0,0.0,43,0.00,,---,0.00,VWS V14.01,2013-04-08 03:08:00,
2013-04-07 21:09:00,51.2,29.8,29.73,West,271,0.0,0.0,44,0.00,,---,0.00,VWS V14.01,2013-04-08 03:09:00,
2013-04-07 21:10:00,51.2,29.9,29.73,West,271,0.0,0.0,44,0.00,,---,0.00,VWS V14.01,2013-04-08 03:10:00,
2013-04-07 21:11:00,51.0,29.8,29.73,West,271,0.0,0.0,44,0.00,,---,0.00,VWS V14.01,2013-04-08 03:11:00,
2013-04-07 21:12:00,53.1,29.0,29.74,NNW,345,0.0,0.0,39,0.00,,---,0.00,VWS V14.01,2013-04-08 03:12:00,
2013-04-07 21:13:00,50.9,29.8,29.73,West,271,0.0,0.0,44,0.00,,---,0.00,VWS V14.01,2013-04-08 03:13:00,
2013-04-07 21:14:00,50.9,29.8,29.73,West,271,0.0,0.0,44,0.00,,---,0.00,VWS V14.01,2013-04-08 03:14:00,
2013-04-07 21:17:00,53.0,29.0,29.74,West,271,0.0,0.0,40,0.00,,---,0.00,VWS V14.01,2013-04-08 03:17:00,
2013-04-07 21:22:00,52.9,29.1,29.74,West,271,0.0,0.0,40,0.00,,---,0.00,VWS V14.01,2013-04-08 03:22:00,
2013-04-07 21:27:00,52.7,29.3,29.73,West,271,0.0,0.0,40,0.00,,---,0.00,VWS V14.01,2013-04-08 03:27:00,
2013-04-07 21:32:00,52.7,29.4,29.74,West,271,0.0,0.0,41,0.00,,---,0.00,VWS V14.01,2013-04-08 03:32:00,
2013-04-07 21:37:00,52.7,29.7,29.74,West,271,0.0,0.0,41,0.00,,---,0.00,VWS V14.01,2013-04-08 03:37:00,
2013-04-07 21:42:00,52.6,29.6,29.74,West,271,0.0,0.0,41,0.00,,---,0.00,VWS V14.01,2013-04-08 03:42:00,
2013-04-07 21:47:00,52.4,29.5,29.73,West,271,0.0,0.0,41,0.00,,---,0.00,VWS V14.01,2013-04-08 03:47:00,
2013-04-07 21:52:00,52.2,29.5,29.73,West,271,0.0,0.0,42,0.00,,---,0.00,VWS V14.01,2013-04-08 03:52:00,
2013-04-07 21:58:00,52.0,29.5,29.73,West,271,0.0,0.0,42,0.00,,---,0.00,VWS V14.01,2013-04-08 03:58:00,
2013-04-07 22:07:00,51.4,29.7,29.73,West,271,0.0,0.0,43,0.00,,---,0.00,VWS V14.01,2013-04-08 04:07:00,
2013-04-07 22:13:00,51.1,30.0,29.73,West,271,0.0,0.0,44,0.00,,---,0.00,VWS V14.01,2013-04-08 04:13:00,
2013-04-07 22:18:00,50.8,30.0,29.73,West,271,0.0,0.0,45,0.00,,---,0.00,VWS V14.01,2013-04-08 04:18:00,
2013-04-07 22:23:00,50.6,30.2,29.73,West,271,0.0,0.0,45,0.00,,---,0.00,VWS V14.01,2013-04-08 04:23:00,
2013-04-07 22:28:00,50.4,30.3,29.74,West,271,0.0,0.0,46,0.00,,---,0.00,VWS V14.01,2013-04-08 04:28:00,
2013-04-07 22:33:00,50.3,30.5,29.74,West,271,0.0,0.0,46,0.00,,---,0.00,VWS V14.01,2013-04-08 04:33:00,
2013-04-07 22:38:00,50.2,30.6,29.74,West,271,0.0,0.0,47,0.00,,---,0.00,VWS V14.01,2013-04-08 04:38:00,
2013-04-07 22:43:00,50.1,30.7,29.74,West,271,0.0,0.0,47,0.00,,---,0.00,VWS V14.01,2013-04-08 04:43:00,
2013-04-07 22:48:00,49.9,30.6,29.74,West,271,0.0,0.0,47,0.00,,---,0.00,VWS V14.01,2013-04-08 04:48:00,
2013-04-07 22:53:00,49.6,30.5,29.73,West,271,0.0,0.0,48,0.00,,---,0.00,VWS V14.01,2013-04-08 04:53:00,
2013-04-07 22:58:00,49.3,30.6,29.73,West,271,0.0,0.0,48,0.00,,---,0.00,VWS V14.01,2013-04-08 04:58:00,
2013-04-07 22:59:00,51.8,32.1,29.89,South,191,0.0,0.0,47,0.00,,---,0.00,VWS V14.01,2013-04-08 04:59:00,
2013-04-07 23:00:00,51.8,32.1,29.89,South,191,0.0,0.0,47,0.00,,---,0.00,VWS V14.01,2013-04-08 05:00:00,
2013-04-07 23:01:00,51.9,32.1,29.89,South,191,0.0,0.0,46,0.00,,---,0.00,VWS V14.01,2013-04-08 05:01:00,
2013-04-07 23:02:00,51.9,32.0,29.89,South,191,0.0,0.0,46,0.00,,---,0.00,VWS V14.01,2013-04-08 05:02:00,
2013-04-07 23:03:00,49.0,30.9,29.72,West,271,0.0,0.0,49,0.00,,---,0.00,VWS V14.01,2013-04-08 05:03:00,
2013-04-07 23:04:00,51.9,32.0,29.89,SW,222,4.2,5.2,46,0.00,,---,0.00,VWS V14.01,2013-04-08 05:04:00,
2013-04-07 23:05:00,51.9,32.0,29.89,SW,236,4.8,5.1,46,0.00,,---,0.00,VWS V14.01,2013-04-08 05:05:00,
2013-04-07 23:06:00,51.9,32.0,29.89,SW,217,0.0,0.0,46,0.00,,---,0.00,VWS V14.01,2013-04-08 05:06:00,
2013-04-07 23:07:00,51.9,31.8,29.89,WSW,238,0.0,3.2,46,0.00,,---,0.00,VWS V14.01,2013-04-08 05:07:00,
2013-04-07 23:08:00,48.7,31.1,29.72,West,271,0.0,0.0,50,0.00,,---,0.00,VWS V14.01,2013-04-08 05:08:00,
2013-04-07 23:09:00,51.9,31.7,29.89,WSW,243,0.0,3.0,46,0.00,,---,0.00,VWS V14.01,2013-04-08 05:09:00,
2013-04-07 23:10:00,52.0,31.8,29.89,WSW,243,0.0,0.0,46,0.00,,---,0.00,VWS V14.01,2013-04-08 05:10:00,
2013-04-07 23:11:00,51.9,31.6,29.89,WSW,243,0.0,0.0,46,0.00,,---,0.00,VWS V14.01,2013-04-08 05:11:00,
2013-04-07 23:12:00,51.9,31.6,29.89,WSW,243,0.0,0.0,46,0.00,,---,0.00,VWS V14.01,2013-04-08 05:12:00,
2013-04-07 23:13:00,48.5,31.2,29.71,West,271,0.0,0.0,51,0.00,,---,0.00,VWS V14.01,2013-04-08 05:13:00,
2013-04-07 23:14:00,52.0,31.7,29.89,WSW,243,0.0,0.0,46,0.00,,---,0.00,VWS V14.01,2013-04-08 05:14:00,
2013-04-07 23:15:00,52.0,31.7,29.89,WSW,243,0.0,0.0,46,0.00,,---,0.00,VWS V14.01,2013-04-08 05:15:00,
2013-04-07 23:16:00,52.0,31.7,29.89,WSW,243,0.0,0.0,46,0.00,,---,0.00,VWS V14.01,2013-04-08 05:16:00,
2013-04-07 23:17:00,51.9,31.5,29.89,WSW,243,0.0,0.0,45,0.00,,---,0.00,VWS V14.01,2013-04-08 05:17:00,
2013-04-07 23:18:00,48.2,31.2,29.71,West,271,0.0,0.0,52,0.00,,---,0.00,VWS V14.01,2013-04-08 05:18:00,
2013-04-07 23:19:00,52.0,31.5,29.89,WSW,243,0.0,0.0,45,0.00,,---,0.00,VWS V14.01,2013-04-08 05:19:00,
2013-04-07 23:20:00,52.0,31.5,29.89,WNW,290,3.5,5.7,45,0.00,,---,0.00,VWS V14.01,2013-04-08 05:20:00,
2013-04-07 23:21:00,52.0,31.5,29.89,West,270,5.1,5.2,45,0.00,,---,0.00,VWS V14.01,2013-04-08 05:21:00,
2013-04-07 23:22:00,52.0,31.5,29.89,SSW,207,6.1,6.1,45,0.00,,---,0.00,VWS V14.01,2013-04-08 05:22:00,
2013-04-07 23:23:00,47.9,31.1,29.71,West,271,0.0,0.0,52,0.00,,---,0.00,VWS V14.01,2013-04-08 05:23:00,
2013-04-07 23:24:00,52.1,31.3,29.89,WSW,249,4.9,5.2,45,0.00,,---,0.00,VWS V14.01,2013-04-08 05:24:00,
2013-04-07 23:25:00,52.0,31.2,29.89,WSW,242,5.3,7.1,45,0.00,,---,0.00,VWS V14.01,2013-04-08 05:25:00,
2013-04-07 23:26:00,52.0,31.1,29.89,WSW,243,7.5,7.5,45,0.00,,---,0.00,VWS V14.01,2013-04-08 05:26:00,
2013-04-07 23:27:00,52.1,31.2,29.89,South,180,7.6,10.0,45,0.00,,---,0.00,VWS V14.01,2013-04-08 05:27:00,
2013-04-07 23:28:00,47.6,31.1,29.71,SSW,210,3.4,6.4,53,0.00,,---,0.00,VWS V14.01,2013-04-08 05:28:00,
2013-04-07 23:29:00,52.0,31.0,29.88,SSW,211,6.1,7.3,44,0.00,,---,0.00,VWS V14.01,2013-04-08 05:29:00,
2013-04-07 23:30:00,51.9,30.9,29.88,SW,231,6.2,8.2,44,0.00,,---,0.00,VWS V14.01,2013-04-08 05:30:00,
2013-04-07 23:31:00,52.0,31.0,29.88,SW,214,8.1,9.8,44,0.00,,---,0.00,VWS V14.01,2013-04-08 05:31:00,
2013-04-07 23:32:00,52.0,31.0,29.88,SW,233,4.6,5.6,44,0.00,,---,0.00,VWS V14.01,2013-04-08 05:32:00,
2013-04-07 23:33:00,47.5,30.9,29.71,South,172,0.0,0.0,52,0.00,,---,0.00,VWS V14.01,2013-04-08 05:33:00,
2013-04-07 23:34:00,51.9,30.9,29.88,SW,228,7.2,7.8,44,0.00,,---,0.00,VWS V14.01,2013-04-08 05:34:00,
2013-04-07 23:35:00,51.9,30.9,29.88,SW,214,5.5,9.9,44,0.00,,---,0.00,VWS V14.01,2013-04-08 05:35:00,
2013-04-07 23:36:00,51.8,30.8,29.88,SW,232,9.6,9.6,44,0.00,,---,0.00,VWS V14.01,2013-04-08 05:36:00,
2013-04-07 23:37:00,51.8,30.9,29.88,SSW,205,5.0,5.6,44,0.00,,---,0.00,VWS V14.01,2013-04-08 05:37:00,
2013-04-07 23:38:00,47.6,29.9,29.71,South,172,0.0,0.0,50,0.00,,---,0.00,VWS V14.01,2013-04-08 05:38:00,
2013-04-07 23:39:00,51.8,30.8,29.88,WSW,252,9.0,9.0,44,0.00,,---,0.00,VWS V14.01,2013-04-08 05:39:00,
2013-04-07 23:40:00,51.8,30.8,29.87,WSW,248,5.3,5.3,44,0.00,,---,0.00,VWS V14.01,2013-04-08 05:40:00,
2013-04-07 23:41:00,51.8,30.8,29.87,SW,221,6.5,8.1,44,0.00,,---,0.00,VWS V14.01,2013-04-08 05:41:00,
2013-04-07 23:42:00,51.8,30.8,29.87,SSW,201,6.1,6.9,44,0.00,,---,0.00,VWS V14.01,2013-04-08 05:42:00,
2013-04-07 23:43:00,47.8,29.5,29.71,South,172,0.0,0.0,49,0.00,,---,0.00,VWS V14.01,2013-04-08 05:43:00,
2013-04-07 23:44:00,51.7,30.7,29.87,SW,215,4.2,6.5,44,0.00,,---,0.00,VWS V14.01,2013-04-08 05:44:00,
2013-04-07 23:45:00,51.7,30.7,29.87,SW,225,5.6,6.5,44,0.00,,---,0.00,VWS V14.01,2013-04-08 05:45:00,
2013-04-07 23:46:00,51.6,30.8,29.87,West,278,5.9,6.0,45,0.00,,---,0.00,VWS V14.01,2013-04-08 05:46:00,
2013-04-07 23:47:00,51.6,30.8,29.87,WSW,245,8.1,9.2,45,0.00,,---,0.00,VWS V14.01,2013-04-08 05:47:00,
2013-04-07 23:48:00,48.0,28.8,29.71,South,172,0.0,0.0,47,0.00,,---,0.00,VWS V14.01,2013-04-08 05:48:00,
2013-04-07 23:49:00,51.6,30.6,29.87,SW,228,5.5,5.7,44,0.00,,---,0.00,VWS V14.01,2013-04-08 05:49:00,
2013-04-07 23:50:00,51.6,30.6,29.87,WSW,242,6.2,6.4,44,0.00,,---,0.00,VWS V14.01,2013-04-08 05:50:00,
2013-04-07 23:51:00,51.6,30.6,29.87,SSW,205,7.8,8.1,44,0.00,,---,0.00,VWS V14.01,2013-04-08 05:51:00,
2013-04-07 23:52:00,51.7,30.7,29.87,SW,236,5.0,5.7,44,0.00,,---,0.00,VWS V14.01,2013-04-08 05:52:00,
2013-04-07 23:53:00,48.1,28.4,29.72,SW,226,0.0,0.0,46,0.00,,---,0.00,VWS V14.01,2013-04-08 05:53:00,
2013-04-07 23:54:00,51.7,30.7,29.87,WSW,245,8.8,8.8,44,0.00,,---,0.00,VWS V14.01,2013-04-08 05:54:00,
2013-04-07 23:55:00,51.8,30.7,29.87,WSW,252,0.0,3.3,44,0.00,,---,0.00,VWS V14.01,2013-04-08 05:55:00,
2013-04-07 23:56:00,51.8,30.6,29.87,SW,236,5.8,7.2,44,0.00,,---,0.00,VWS V14.01,2013-04-08 05:56:00,
2013-04-07 23:57:00,51.8,30.7,29.87,West,259,4.8,7.3,44,0.00,,---,0.00,VWS V14.01,2013-04-08 05:57:00,
2013-04-07 23:58:00,48.3,27.9,29.72,SW,226,0.0,0.0,45,0.00,,---,0.00,VWS V14.01,2013-04-08 05:58:00,
2013-04-07 23:59:00,51.7,30.6,29.87,SSW,205,6.5,8.3,44,0.00,,---,0.00,VWS V14.01,2013-04-08 05:59:00,